This is the latest recevied weather packets stored in our database for station/object K9RJT. If no packets are shown the sender has not sent any weather packets the latest 10 day(s).
| Time | Temp. | Humidity | Pressure | Rain* | Wind** | Luminosity | Snow |
|---|---|---|---|---|---|---|---|
| 1778027406 | 26.67° C | 30% | 1007.7 hPa | 0 mm | - | 121 W/m² | - |
| 1778027103 | 26.67° C | 30% | 1007.9 hPa | 0 mm | - | 268 W/m² | - |
| 1778026798 | 26.67° C | 30% | 1007.6 hPa | 0 mm | - | 264 W/m² | - |
| 1778026495 | 26.11° C | 30% | 1007.6 hPa | 0 mm | - | 160 W/m² | - |
| 1778026192 | 26.67° C | 31% | 1007.6 hPa | 0 mm | - | 286 W/m² | - |
| 1778025889 | 26.67° C | 32% | 1007.7 hPa | 0 mm | - | 294 W/m² | - |
| 1778025586 | 26.67° C | 32% | 1007.6 hPa | 0 mm | - | 296 W/m² | - |
| 1778025285 | 26.67° C | 33% | 1007.5 hPa | 0 mm | - | 335 W/m² | - |
| 1778024981 | 26.11° C | 32% | 1007.4 hPa | 0 mm | - | 354 W/m² | - |
| 1778024679 | 25° C | 34% | 1007.6 hPa | 0 mm | - | 375 W/m² | - |
| 1778024375 | 25.56° C | 33% | 1007.6 hPa | 0 mm | - | 105 W/m² | - |
| 1778024073 | 25.56° C | 33% | 1007.8 hPa | 0 mm | - | 101 W/m² | - |
| 1778023770 | 25.56° C | 33% | 1007.7 hPa | 0 mm | - | 123 W/m² | - |
| 1778023468 | 25° C | 34% | 1007.6 hPa | 0 mm | - | 425 W/m² | - |
| 1778023165 | 25.56° C | 34% | 1007.6 hPa | 0 mm | - | 95 W/m² | - |
| 1778022862 | 26.11° C | 33% | 1007.8 hPa | 0 mm | - | 168 W/m² | - |
| 1778022560 | 25.56° C | 34% | 1007.8 hPa | 0 mm | - | 168 W/m² | - |
| 1778022258 | 25.56° C | 34% | 1007.8 hPa | 0 mm | - | 153 W/m² | - |
| 1778021954 | 25.56° C | 34% | 1007.7 hPa | 0 mm | - | 188 W/m² | - |
| 1778021651 | 25.56° C | 35% | 1007.5 hPa | 0 mm | - | 170 W/m² | - |
| 1778021346 | 26.67° C | 34% | 1007.8 hPa | 0 mm | - | 127 W/m² | - |
| 1778021044 | 26.67° C | 31% | 1007.5 hPa | 0 mm | - | 226 W/m² | - |
| 1778020741 | 26.11° C | 31% | 1007.8 hPa | 0 mm | - | 545 W/m² | - |
| 1778020438 | 25.56° C | 34% | 1007.7 hPa | 0 mm | - | 114 W/m² | - |
| 1778020134 | 25.56° C | 34% | 1007.8 hPa | 0 mm | - | 107 W/m² | - |
* Rain latest hour (hover to see other rain measurements)
** Current wind speed in m/s (hover to see current wind gust speed)